{"data":{"norad_id":61952,"epoch":"2026-09-21T09:51:38.863872Z","epoch_age_seconds":106932,"freshness":"FRESH","line1":"1 61952U 24209P   26264.41086648  .00022042  00000+0  66145-3 0  9991","line2":"2 61952  53.1594 311.1123 0001337  74.2431 285.8719 15.34406568104893","mean_motion":15.34406568,"eccentricity":0.0001337,"inclination_deg":53.1594,"raan_deg":311.1123,"arg_perigee_deg":74.2431,"mean_anomaly_deg":285.8719,"bstar":0.00066145,"rev_number":10489,"period_min":93.847356367677,"perigee_km":461.76910106649,"apogee_km":463.5983365267,"semimajor_km":6840.8207187966,"source":"CELESTRAK","updated_at":"2026-09-22T09:00:49.456208Z"}}